Weather in Cupertino

United States     37°19′21″N   122°01′55″W
temp.,
°C
wind,
m/s
gust,
m/s
humid.,
%
clouds,
%
prec.,
mm/h
press.,
hPa
HPBL,
m
18 may, tue
tue1823:00+9wsw11865 0.0 1020135
02:00+8ssw11876 0.0 102064
05:00+8sw118917 0.0 102048
08:00+13wnw13710 0.0 1020280
11:00+21nw46360 0.0 10191021
14:00+24nw56260 0.0 10181208
17:00+21nw46280 0.0 1017925
20:00+13wnw35510 0.0 1018294
19 may, wed
wed1923:00+8w237713 0.0 1019177
02:00+7wsw11878 0.0 101899
05:00+6sw11894 0.0 101866
08:00+10wnw24670 0.0 1017522
11:00+17nw35320 0.0 10161065
14:00+18wnw56310 0.0 10151187
17:00+16wnw57340 0.0 10141026
20:00+10wnw49590 0.0 1016693
20 may, thu
thu2023:00+6wnw25810 0.0 1017348
02:00+6wnw36841 0.0 1017312
05:00+5wsw24850 0.0 1017193
08:00+9nw36600 0.0 1018583
11:00+15nnw57260 0.0 10171334
14:00+17nw68270 0.0 10161770
17:00+16wnw57350 0.0 10151218
20:00+10wnw36680 0.0 1016431
21 may, fri
fri2123:00+6wsw12874 0.0 1017100
02:00+5ssw11906 0.0 101653
05:00+5sw11900 0.0 101625
08:00+10nnw12715 0.0 1016278
11:00+18n23290 0.0 10161200
14:00+21nw54204 0.0 10142310
17:00+18w45285 0.0 1014980
20:00+10w24746 0.0 1016362
22 may, sat
sat2223:00+8ssw128756 0.0 1017250
02:00+6sse348922 0.0 1017113
05:00+6ssw11908 0.0 101840
08:00+11sw1168100 0.0 1017203
11:00+20nnw11335 0.0 10171378
14:00+22w333081 0.0 10152651
17:00+20w22365 0.0 10141554
20:00+13wnw22630 0.0 1017153